STARLINK-4311, 53062

Orbit data source: Space-Track

STARLINK-4311, 53062 is a payload satellite owned by SpaceX/Seattle (US) in SSO that was launched on Mon, 11 Jul 2022 UTC via an FALCON 9 launch vehicle from the Air Force Western Test Range (AFWTR). Payload-class satellites include a variety of spacecraft equipped with specific instruments for various scientific and technological missions. These include communications satellites like Starlink; space stations such as the ISS; scientific satellites like the Hubble; Earth observation satellites from companies like Planet Labs, Umbra, and HawkEye 360; GPS; miniature CubeSats for education and research; and military/defense satellites.

Loading next visibility...
Identifier
53062, 2022-077V
Orbit
SSO
Country
Flag of USUS
Related business
Manufacturer
SpaceX/Seattle
Mission
Operational Commercial Communications
Bus & Motor
STARLINK, Unknown motor
Mass
297 kg wet, ~275 kg dry
Launch date (UTC)
2022-07-11 (3 years ago)
Launch vehicle
FALCON 9
Launch site
Air Force Western Test Range (AFWTR)
Object type
Payload
Rocket body
Debris
Shape & HBR
Box + 1 Pan, 10.1 m
Radar Cross Section
13.562 m², Large (>1 m²)

Expand to show TLE details & history
Last TLE update: 1 day ago

TLE from 1 day ago
0 STARLINK-4311
1 53062U 22077V   25348.50183454 -.00000275  00000-0 -16869-4 0  9996
2 53062  97.6018 166.8226 0003644  37.7657 322.3823 15.01252906188137
Epoch: 2025-12-14T12:02Z
TLE epoch observation values (Epoch: 2025-12-14T12:02:38.504Z)
Latitude
0.00003°
Longitude
-97.25168°
Altitude
564.087 km
Speed
7.58 km/s
True Right ascension
11h 07m 17s
True Declination
0° 00' 00"
Sunlit
Object was in daylight at epoch
Visualization orbit readout
Latitude
Unknown
Longitude
Unknown
Altitude
Unknown
Speed
Unknown
Apparent Right ascension
Unknown
Apparent Declination
Unknown
Sunlit
N/A
Visualization observer readout
Local Sidereal Time
13:20:34
Azimuth
Unknown
Elevation
Unknown
Doppler factor
Unknown
Orbital elements
Apogee altitude
562.559 km
Perigee altitude
557.503 km
Semi-major axis
6,938.168 km
Eccentricity
0.00036
Inclination
97.6018°
RAAN
166.8226°
Arg. of periapsis
37.7657°
True anomaly
322.3568°
Mean anomaly
322.3823°
Eccentric anomaly
322.36955°
Mean motion
3.75557 °/min
Orbital period
95.86 mins
BSTAR
-0.000016869
Loading maneuver chart data...
Computing Atmospheric mass density...
Loading historical data...
Loading historical data...
Loading historical data...
Loading historical data...
Loading historical data...
Loading historical data...
Loading historical data...

Documentation

Showing up to 5 results
|